EW1675 Weather Reports


time (UTC)temp
F
wind
direction
speed
knots
gust
knots
rain 1hr
in
rain 24hr
in
rain mn
in
humidity
%
barometer
mb
20260510185003 84 154 0.9 4.3 0.00 0.00 0.00 41 1012.6
20260510184023 85 179 1.7 6.1 0.00 0.00 0.00 40 1012.6
20260510183105 86 82 1.7 7.0 0.00 0.00 0.00 40 1012.5
20260510182002 85 147 1.7 5.2 0.00 0.00 0.00 42 1012.6
20260510181002 84 169 0.9 3.5 0.00 0.00 0.00 40 1012.6
20260510180105 83 167 1.7 6.1 0.00 0.00 0.00 45 1012.8
20260510175045 83 147 0.9 4.3 0.00 0.00 0.00 45 1012.9
20260510174044 82 136 0.9 2.6 0.00 0.00 0.00 45 1013.1
20260510173003 83 138 0.9 2.6 0.00 0.00 0.00 43 1013.2
20260510172004 83 172 1.7 8.7 0.00 0.00 0.00 42 1013.5
20260510171023 83 24 1.7 7.0 0.00 0.00 0.00 50 1013.4
20260510170023 83 178 0.9 4.3 0.00 0.00 0.00 44 1013.5
20260510165024 82 103 0.9 4.3 0.00 0.00 0.00 47 1013.4
20260510164044 81 18 0.9 5.2 0.00 0.00 0.00 47 1013.4
20260510163024 81 91 1.7 6.1 0.00 0.00 0.00 46 1013.6
20260510162024 82 198 0.9 3.5 0.00 0.00 0.00 45 1014.0
20260510161003 81 153 0.9 3.5 0.00 0.00 0.00 49 1014.1
20260510160045 81 64 0.9 5.2 0.00 0.00 0.00 47 1014.0
20260510155024 80 113 0.9 4.3 0.00 0.00 0.00 51 1014.1
20260510154003 79 158 1.7 5.2 0.00 0.00 0.00 54 1014.2
20260510153045 78 147 1.7 4.3 0.00 0.00 0.00 53 1014.2
20260510152002 77 147 0.9 4.3 0.00 0.00 0.00 57 1014.1
20260510151045 77 165 0.9 3.5 0.00 0.00 0.00 54 1014.1
20260510150004 76 161 0.0 1.7 0.00 0.00 0.00 58 1014.1
20260510145002 75 172 0.9 3.5 0.00 0.00 0.00 57 1014.0
20260510144106 75 150 0.9 2.6 0.00 0.00 0.00 57 1013.9
20260510143003 74 131 0.0 1.7 0.00 0.00 0.00 59 1013.8
20260510142003 72 175 0.0 1.7 0.00 0.00 0.00 65 1013.7
20260510141045 71 175 0.0 1.7 0.00 0.00 0.00 66 1013.6
20260510140106 70 153 0.9 1.7 0.00 0.00 0.00 72 1013.5
20260510135106 68 137 0.9 2.6 0.00 0.00 0.00 74 1013.6
20260510134024 67 134 0.0 1.7 0.00 0.00 0.00 72 1013.7
20260510133024 66 88 0.9 1.7 0.00 0.00 0.00 74 1013.7
20260510132004 65 138 0.0 1.7 0.00 0.00 0.00 80 1013.8
20260510131024 63 140 0.0 1.7 0.00 0.00 0.00 89 1013.6
20260510130024 61 137 0.0 2.6 0.00 0.00 0.00 94 1013.8
20260510125003 59 13 0.0 0.9 0.00 0.00 0.00 96 1013.8
20260510124024 58 0 0.0 0.0 0.00 0.00 0.00 96 1013.8
20260510123003 56 9 0.0 0.9 0.00 0.00 0.00 96 1013.9
20260510122003 55 9 0.0 0.9 0.00 0.00 0.00 96 1013.9
20260510121024 55 9 0.0 1.7 0.00 0.00 0.00 96 1013.8
20260510120024 54 51 0.0 1.7 0.00 0.00 0.00 95 1013.7
20260510115003 53 159 0.0 0.9 0.00 0.00 0.00 95 1013.6
20260510114024 52 0 0.0 0.0 0.00 0.00 0.00 95 1013.5
20260510113003 51 0 0.0 0.0 0.00 0.00 0.00 94 1013.2
20260510112024 51 0 0.0 0.0 0.00 0.00 0.00 94 1013.0
20260510111024 50 0 0.0 0.0 0.00 0.00 0.00 94 1012.7
20260510110003 50 152 0.0 1.7 0.00 0.00 0.00 93 1012.6
20260510105003 50 155 0.0 0.9 0.00 0.00 0.00 92 1012.4
20260510104003 49 0 0.0 0.0 0.00 0.00 0.00 92 1012.3
20260510103024 50 0 0.0 0.0 0.00 0.00 0.00 92 1012.3
20260510102024 50 0 0.0 0.0 0.00 0.00 0.00 92 1012.2
20260510101001 50 0 0.0 0.0 0.00 0.00 0.00 92 1011.9
20260510100022 50 0 0.0 0.0 0.00 0.00 0.00 92 1011.7
20260510095001 50 0 0.0 0.0 0.00 0.00 0.00 92 1011.7
20260510094022 50 0 0.0 0.0 0.00 0.00 0.00 91 1011.8
20260510093001 50 0 0.0 0.0 0.00 0.00 0.00 91 1011.7
20260510092001 50 0 0.0 0.0 0.00 0.00 0.00 91 1011.7
20260510091002 50 0 0.0 0.0 0.00 0.00 0.00 91 1011.6
20260510090022 50 0 0.0 0.0 0.00 0.00 0.00 91 1011.6
20260510085104 50 0 0.0 0.0 0.00 0.00 0.00 91 1011.6
20260510084001 51 0 0.0 0.0 0.00 0.00 0.00 91 1011.5
20260510083002 51 161 0.0 0.9 0.00 0.00 0.00 91 1011.5
20260510082001 51 0 0.0 0.0 0.00 0.00 0.00 90 1011.4
20260510081002 51 0 0.0 0.0 0.00 0.00 0.00 90 1011.2
20260510080022 52 0 0.0 0.0 0.00 0.00 0.00 90 1011.3
20260510075001 52 0 0.0 0.0 0.00 0.00 0.00 90 1011.0
20260510074022 52 0 0.0 0.0 0.00 0.00 0.00 90 1010.9
20260510073023 52 0 0.0 0.0 0.00 0.00 0.00 90 1010.9
20260510072001 52 0 0.0 0.0 0.00 0.00 0.00 89 1010.9
20260510071022 53 0 0.0 0.0 0.00 0.00 0.00 89 1011.0
20260510070001 53 0 0.0 0.0 0.00 0.00 0.00 89 1010.8
20260510065001 53 0 0.0 0.0 0.00 0.00 0.00 89 1010.6
20260510064001 54 0 0.0 0.0 0.00 0.00 0.00 89 1010.4
20260510063022 54 0 0.0 0.0 0.00 0.00 0.00 89 1010.3
20260510062001 54 0 0.0 0.0 0.00 0.00 0.00 88 1010.3
20260510061001 54 0 0.0 0.0 0.00 0.00 0.00 88 1010.4
20260510060043 55 0 0.0 0.0 0.00 0.00 0.00 88 1010.4
20260510055022 55 0 0.0 0.0 0.00 0.00 0.00 88 1010.4
20260510054001 55 0 0.0 0.0 0.00 0.00 0.00 88 1010.4
20260510053001 56 0 0.0 0.0 0.00 0.00 0.00 87 1010.4
20260510052043 56 0 0.0 0.0 0.00 0.00 0.00 87 1010.5
20260510051022 56 0 0.0 0.0 0.00 0.00 0.00 86 1010.6
20260510050001 56 0 0.0 0.0 0.00 0.00 0.00 86 1010.5
20260510045022 57 0 0.0 0.0 0.00 0.00 0.00 85 1010.5
20260510044001 57 0 0.0 0.0 0.00 0.00 0.00 85 1010.4
20260510043022 58 0 0.0 0.0 0.00 0.00 0.00 85 1010.5
20260510042002 58 0 0.0 0.0 0.00 0.00 0.00 84 1010.3
20260510041001 58 0 0.0 0.0 0.00 0.00 0.00 84 1010.3
20260510040044 59 0 0.0 0.0 0.00 0.00 0.00 84 1010.3
20260510035023 59 0 0.0 0.0 0.00 0.00 0.00 83 1010.3
20260510034022 60 0 0.0 0.0 0.00 0.00 0.00 82 1010.2
20260510033002 60 0 0.0 0.0 0.00 0.00 0.00 81 1010.1
20260510032022 60 0 0.0 0.0 0.00 0.00 0.00 80 1010.2
20260510031002 61 0 0.0 0.0 0.00 0.00 0.00 80 1010.1
20260510030044 61 0 0.0 0.0 0.00 0.00 0.00 80 1010.1
20260510025044 62 0 0.0 0.0 0.00 0.00 0.00 79 1010.1
20260510024043 62 0 0.0 0.0 0.00 0.00 0.00 79 1010.0
20260510023022 62 0 0.0 0.0 0.00 0.00 0.00 78 1009.8
20260510022002 63 0 0.0 0.0 0.00 0.00 0.00 78 1009.8
20260510021002 63 0 0.0 0.0 0.00 0.00 0.00 77 1009.7
20260510020001 63 0 0.0 0.0 0.00 0.00 0.00 77 1009.7
20260510015044 63 0 0.0 0.0 0.00 0.00 0.00 76 1009.5
20260510014002 64 0 0.0 0.0 0.00 0.00 0.00 76 1009.4
20260510013023 64 0 0.0 0.0 0.00 0.00 0.00 76 1009.3
20260510012043 65 0 0.0 0.0 0.00 0.00 0.00 74 1009.1
20260510011023 65 0 0.0 0.0 0.00 0.00 0.00 73 1008.9
20260510010023 66 0 0.0 0.0 0.00 0.00 0.00 71 1008.9
20260510005001 67 0 0.0 0.0 0.00 0.00 0.00 70 1008.9
20260510004002 68 0 0.0 0.0 0.00 0.00 0.00 69 1008.8
20260510003003 69 0 0.0 0.0 0.00 0.00 0.00 67 1008.7
20260510002023 70 126 0.0 0.9 0.00 0.00 0.00 65 1008.7
20260510001023 70 0 0.0 0.0 0.00 0.00 0.00 64 1008.6
20260510000023 71 0 0.0 0.0 0.00 0.00 0.00 63 1008.5
20260509235002 72 128 0.0 0.9 0.00 0.00 0.00 61 1008.3
20260509234044 72 128 0.0 0.9 0.00 0.00 0.00 61 1008.3
20260509233044 72 128 0.0 0.9 0.00 0.00 0.00 59 1008.2
20260509232044 73 129 0.0 1.7 0.00 0.00 0.00 59 1008.2
20260509231023 73 124 0.0 1.7 0.00 0.00 0.00 58 1008.3
20260509230002 73 114 0.0 0.9 0.00 0.00 0.00 58 1008.2
20260509225044 74 114 0.0 0.9 0.00 0.00 0.00 57 1008.2
20260509224002 74 133 0.0 1.7 0.00 0.00 0.00 55 1008.3
20260509223002 74 151 0.9 4.3 0.00 0.00 0.00 54 1008.3
20260509222023 74 152 0.9 4.3 0.00 0.00 0.00 52 1008.3
20260509221002 75 153 0.0 1.7 0.00 0.00 0.00 48 1008.3
20260509220023 75 153 0.0 2.6 0.00 0.00 0.00 49 1008.2
20260509215002 75 140 0.0 2.6 0.00 0.00 0.00 49 1008.2
20260509214044 76 176 0.9 3.5 0.00 0.00 0.00 48 1008.2
20260509213002 75 254 0.0 2.6 0.00 0.00 0.00 50 1008.1
20260509212002 75 182 0.9 4.3 0.00 0.00 0.00 51 1007.9
20260509211023 75 175 0.9 3.5 0.00 0.00 0.00 53 1008.0
20260509210002 75 159 0.9 4.3 0.00 0.00 0.00 54 1008.0
20260509205002 75 152 0.9 3.5 0.00 0.00 0.00 53 1007.8
20260509204002 75 143 1.7 7.0 0.00 0.00 0.00 53 1008.0
20260509203023 75 151 1.7 6.1 0.00 0.00 0.00 52 1007.9
20260509202002 76 183 0.9 6.1 0.00 0.00 0.00 55 1007.8
20260509201002 76 113 1.7 6.1 0.00 0.00 0.00 59 1007.9
20260509200023 76 168 0.9 4.3 0.00 0.00 0.00 58 1008.2
20260509195002 75 164 1.7 6.1 0.00 0.00 0.00 54 1008.3
20260509194002 74 164 1.7 5.2 0.00 0.00 0.00 60 1008.5
20260509193002 73 133 1.7 6.1 0.00 0.00 0.00 60 1008.5
20260509192002 72 149 1.7 7.0 0.00 0.00 0.00 58 1009.1
20260509191002 71 171 1.7 5.2 0.00 0.00 0.00 59 1009.1
20260509190003 71 166 1.7 6.1 0.00 0.00 0.00 59 1009.2